Location: Cluj-Napoca
(46.7712°N, 23.6236°E)
Time: 11:29:43
(UTC+03:00)

ISS - Pass Details

Date: 11 May 2021
Orbit: 417 x 422 km, 51.6° (Epoch: 15 May)

Event Time Altitude Azimuth Distance (km) Brightness Sun altitude
Exits shadow 01:31:25 17° 59° (ENE) 1,150 -1.2 -25.3°
Drops below altitude 10° 01:32:19 10° 61° (ENE) 1,505 -0.6 -25.3°
Sets 01:34:26 0° 65° (ENE) 2,372 0.4 -25.3°
